Voltar ao catálogo

COSMOS 409

AtivoMilitarLEO
NORAD 5180·PAYLOAD·🇷🇺 Russia

Lançado Apr 28, 1971 de Plesetsk Cosmodrome

Loading…

Próximas Passagens (próximas 24 horas)

TLE

AtualizadoSource: Space-Track

Época: Sep 14, 2026, 08:44 UTC

1 05180U 71038A   26257.36400196  .00000203  00000-0  56857-3 0  9993
2 05180  73.9989 239.2211 0021997 112.3361  40.7911 13.17846976663993

Acompanhe COSMOS 409 em tempo real com AllMySat

Download on the App Store